Location: Jackson Park
(37.2862°N, 79.9123°W)
Time: 22:33:03
(UTC+00:00)

Transit 4A - Pass Details

Date: 10 May 2026
Orbit: 861 x 980 km, 66.8° (Epoch: 5 June)

Event Time Altitude Azimuth Distance (km) Brightness Sun altitude
Rises 22:10:33 0° 341° (NNW) 3,684 11.3 23.5°
Reaches altitude 10° 22:13:35 10° 354° (N) 2,737 10.6 22.9°
Maximum altitude 22:18:55 27° 50° (NE) 1,795 9.2 21.9°
Drops below altitude 10° 22:24:11 10° 106° (ESE) 2,712 9.8 20.8°
Sets 22:27:09 0° 118° (ESE) 3,643 10.4 20.2°
